Hourly Data Report for May 15, 2012

All times are specified in Local Standard Time (LST). Add 1 hour to adjust for Daylight Saving Time where and when it is observed.

DEER LAKE A
NEWFOUNDLAND

49°12'33.000" N
57°23'40.000" W
21.90 m
8401502
71809
YDF

Download Data

Hourly Data (May 2012)
Hourly Data Report for May 15, 2012
Temp Definition
°C
Dew Point Temp Definition
°C
Rel Hum Definition
%
Wind Dir Definition
10's deg

Wind Spd Definition
km/h
Visibility Definition
km
Stn Press Definition
kPa
Hmdx Definition


Wind Chill Definition


Weather Definition


TIME
00:30 Legend Double Dagger 5.1 4.2 94   0 10.0 102.30     LegendNANA
01:30 Legend Double Dagger 4.5 4.1 97 32 6 10.0 102.27     LegendNANA
02:30 Legend Double Dagger 3.7 3.0 95 3 8 10.0 102.21     Mainly Clear
03:30 Legend Double Dagger 3.7 3.0 95 4 8 10.0 102.21     LegendNANA
04:30 Legend Double Dagger 3.1 2.7 97 6 8 10.0 102.21     LegendNANA
05:30 Legend Double Dagger 3.8 3.2 96 8 9 10.0 102.22     Mainly Clear
06:30 Legend Double Dagger 6.2 4.7 90 4 7 10.0 102.22     LegendNANA
07:30 Legend Double Dagger 9.4 6.2 80 4 9 10.0 102.22     LegendNANA
08:30 Legend Double Dagger 12.4 7.3 71   0 10.0 102.23     Mainly Clear
09:30 Legend Double Dagger 15.6 8.4 62 20 4 10.0 102.18     LegendNANA
10:30 Legend Double Dagger 17.2 9.0 58 23 8 10.0 102.15     LegendNANA
11:30 Legend Double Dagger 18.1 10.1 59 17 13 10.0 102.13     Mostly Cloudy
12:30 Legend Double Dagger 20.8 11.0 53 23 15 10.0 102.07     LegendNANA
13:30 Legend Double Dagger 20.9 10.5 51 22 22 10.0 102.05     LegendNANA
14:30 Legend Double Dagger 21.7 11.3 51 22 14 10.0 102.02     Mostly Cloudy
15:30 Legend Double Dagger 21.1 11.0 52 21 17 10.0 102.00     LegendNANA
16:30 Legend Double Dagger 20.2 10.7 54 26 17 10.0 102.04     LegendNANA
17:30 Legend Double Dagger 19.5 11.6 60 29 11 10.0 102.06     Mostly Cloudy
18:30 Legend Double Dagger 17.7 11.4 66 21 15 10.0 102.12     LegendNANA
19:30 Legend Double Dagger 16.7 11.7 72 24 8 10.0 102.16     LegendNANA
20:30 Legend Double Dagger 15.9 11.7 76 22 8 10.0 102.19     Cloudy
21:30 Legend Double Dagger 14.8 12.5 86 24 8 10.0 102.24     Rain Showers
22:30 Legend Double Dagger 13.6 12.7 94   0 10.0 102.22     Rain Showers
23:30 Legend Double Dagger 13.2 12.6 96 18 7 10.0 102.20     Rain Showers

Notes on Data Quality.

Legend

  • E = Estimated
  • M = Missing
  • NA = Not Available
  • ‡ = Partner data that is not subject to review by the National Climate Archives
Date modified: